Time,TemperatureF,DewpointF,PressureIn,WindDirection,WindDirectionDegrees,WindSpeedMPH,WindSpeedGustMPH,Humidity,HourlyPrecipIn,Conditions,Clouds,dailyrainin,SoftwareType,DateUTC
2013-11-05 00:10:00,70.8,62.0,30.05,ENE,63,6.0,-999.0,73,-99.99,,,0.00,weatherlink.com 1.10,2013-11-05 05:10:00,
2013-11-05 00:25:00,70.8,62.0,30.05,NE,55,16.0,-999.0,73,-99.99,,,0.00,weatherlink.com 1.10,2013-11-05 05:25:00,
2013-11-05 00:40:00,70.9,62.0,30.05,ENE,59,12.0,-999.0,73,-99.99,,,0.00,weatherlink.com 1.10,2013-11-05 05:40:00,
2013-11-05 00:55:00,70.7,62.0,30.05,ENE,63,14.0,-999.0,73,-99.99,,,0.00,weatherlink.com 1.10,2013-11-05 05:55:00,
2013-11-05 01:10:00,70.3,62.0,30.05,NE,54,17.0,-999.0,74,-99.99,,,0.00,weatherlink.com 1.10,2013-11-05 06:10:00,
2013-11-05 01:25:00,70.0,61.0,30.05,ENE,76,11.0,-999.0,74,-99.99,,,0.00,weatherlink.com 1.10,2013-11-05 06:25:00,
2013-11-05 01:40:00,70.0,61.0,30.04,ENE,69,17.0,-999.0,74,-99.99,,,0.00,weatherlink.com 1.10,2013-11-05 06:40:00,
2013-11-05 01:55:00,70.2,62.0,30.03,ENE,59,15.0,-999.0,74,-99.99,,,0.00,weatherlink.com 1.10,2013-11-05 06:55:00,
2013-11-05 02:10:00,70.2,62.0,30.03,ENE,71,7.0,-999.0,74,-99.99,,,0.00,weatherlink.com 1.10,2013-11-05 07:10:00,
2013-11-05 02:25:00,69.9,61.0,30.02,ENE,73,12.0,-999.0,74,-99.99,,,0.00,weatherlink.com 1.10,2013-11-05 07:25:00,
2013-11-05 02:40:00,69.5,61.0,30.02,ENE,66,13.0,-999.0,74,-99.99,,,0.00,weatherlink.com 1.10,2013-11-05 07:40:00,
2013-11-05 02:55:00,69.2,61.0,30.02,NE,56,11.0,-999.0,75,-99.99,,,0.00,weatherlink.com 1.10,2013-11-05 07:55:00,
2013-11-05 03:10:00,68.9,61.0,30.02,ENE,74,12.0,-999.0,75,-99.99,,,0.00,weatherlink.com 1.10,2013-11-05 08:10:00,
2013-11-05 03:25:00,68.6,60.0,30.03,ENE,63,13.0,-999.0,75,-99.99,,,0.00,weatherlink.com 1.10,2013-11-05 08:25:00,
2013-11-05 03:40:00,68.5,60.0,30.03,NE,46,14.0,-999.0,75,-99.99,,,0.00,weatherlink.com 1.10,2013-11-05 08:40:00,
2013-11-05 03:55:00,68.3,60.0,30.02,NE,51,19.0,-999.0,76,-99.99,,,0.00,weatherlink.com 1.10,2013-11-05 08:55:00,
2013-11-05 04:10:00,68.0,60.0,30.02,ENE,57,13.0,-999.0,76,-99.99,,,0.00,weatherlink.com 1.10,2013-11-05 09:10:00,
2013-11-05 04:25:00,67.8,60.0,30.03,ENE,59,11.0,-999.0,76,-99.99,,,0.00,weatherlink.com 1.10,2013-11-05 09:25:00,
2013-11-05 04:40:00,67.6,60.0,30.03,ENE,57,10.0,-999.0,76,-99.99,,,0.00,weatherlink.com 1.10,2013-11-05 09:40:00,
2013-11-05 04:55:00,67.5,60.0,30.02,NE,48,13.0,-999.0,76,-99.99,,,0.00,weatherlink.com 1.10,2013-11-05 09:55:00,
2013-11-05 05:10:00,67.5,60.0,30.02,NE,56,15.0,-999.0,76,-99.99,,,0.00,weatherlink.com 1.10,2013-11-05 10:10:00,
2013-11-05 05:25:00,67.5,60.0,30.03,ENE,62,6.0,-999.0,76,-99.99,,,0.00,weatherlink.com 1.10,2013-11-05 10:25:00,
2013-11-05 05:40:00,67.6,60.0,30.03,ENE,65,8.0,-999.0,76,-99.99,,,0.00,weatherlink.com 1.10,2013-11-05 10:40:00,
2013-11-05 05:55:00,67.8,60.0,30.03,ENE,69,13.0,-999.0,76,-99.99,,,0.00,weatherlink.com 1.10,2013-11-05 10:55:00,
2013-11-05 06:10:00,67.6,60.0,30.04,ENE,67,6.0,-999.0,76,-99.99,,,0.00,weatherlink.com 1.10,2013-11-05 11:10:00,
2013-11-05 06:25:00,67.4,60.0,30.04,ENE,61,11.0,-999.0,76,-99.99,,,0.00,weatherlink.com 1.10,2013-11-05 11:25:00,
2013-11-05 06:40:00,67.3,60.0,30.04,ENE,65,7.0,-999.0,76,-99.99,,,0.00,weatherlink.com 1.10,2013-11-05 11:40:00,
2013-11-05 06:55:00,67.4,60.0,30.04,NE,42,10.0,-999.0,76,-99.99,,,0.00,weatherlink.com 1.10,2013-11-05 11:55:00,
2013-11-05 07:10:00,67.7,60.0,30.04,ENE,76,10.0,-999.0,76,-99.99,,,0.00,weatherlink.com 1.10,2013-11-05 12:10:00,
2013-11-05 07:25:00,67.7,60.0,30.04,ENE,72,11.0,-999.0,76,-99.99,,,0.00,weatherlink.com 1.10,2013-11-05 12:25:00,
2013-11-05 07:40:00,68.2,60.0,30.05,ENE,64,10.0,-999.0,76,-99.99,,,0.00,weatherlink.com 1.10,2013-11-05 12:40:00,
2013-11-05 07:55:00,68.9,61.0,30.05,ENE,66,12.0,-999.0,76,-99.99,,,0.00,weatherlink.com 1.10,2013-11-05 12:55:00,
2013-11-05 08:10:00,69.8,62.0,30.05,NE,54,12.0,-999.0,75,-99.99,,,0.00,weatherlink.com 1.10,2013-11-05 13:10:00,
2013-11-05 08:25:00,70.5,62.0,30.05,ESE,111,6.0,-999.0,75,-99.99,,,0.00,weatherlink.com 1.10,2013-11-05 13:25:00,
2013-11-05 08:40:00,71.3,63.0,30.06,ENE,69,6.0,-999.0,75,-99.99,,,0.00,weatherlink.com 1.10,2013-11-05 13:40:00,
2013-11-05 08:55:00,71.8,63.0,30.06,ENE,70,7.0,-999.0,74,-99.99,,,0.00,weatherlink.com 1.10,2013-11-05 13:55:00,
2013-11-05 09:11:00,72.5,64.0,30.06,ENE,67,12.0,-999.0,74,-99.99,,,0.00,weatherlink.com 1.10,2013-11-05 14:11:00,
2013-11-05 09:26:00,73.6,65.0,30.06,ENE,64,17.0,-999.0,74,-99.99,,,0.00,weatherlink.com 1.10,2013-11-05 14:26:00,
2013-11-05 09:41:00,74.4,65.0,30.06,East,84,13.0,-999.0,73,-99.99,,,0.00,weatherlink.com 1.10,2013-11-05 14:41:00,
2013-11-05 09:56:00,75.4,66.0,30.06,ENE,59,13.0,-999.0,73,-99.99,,,0.00,weatherlink.com 1.10,2013-11-05 14:56:00,
2013-11-05 10:11:00,76.5,67.0,30.06,NE,51,13.0,-999.0,72,-99.99,,,0.00,weatherlink.com 1.10,2013-11-05 15:11:00,
2013-11-05 10:26:00,76.6,67.0,30.06,ENE,57,4.0,-999.0,72,-99.99,,,0.00,weatherlink.com 1.10,2013-11-05 15:26:00,
2013-11-05 10:41:00,77.4,68.0,30.05,ENE,62,2.0,-999.0,72,-99.99,,,0.00,weatherlink.com 1.10,2013-11-05 15:41:00,
2013-11-05 10:56:00,77.8,68.0,30.05,East,80,5.0,-999.0,72,-99.99,,,0.00,weatherlink.com 1.10,2013-11-05 15:56:00,
2013-11-05 11:11:00,77.6,68.0,30.05,ENE,58,10.0,-999.0,72,-99.99,,,0.00,weatherlink.com 1.10,2013-11-05 16:11:00,
2013-11-05 11:26:00,77.9,68.0,30.04,NE,50,8.0,-999.0,72,-99.99,,,0.00,weatherlink.com 1.10,2013-11-05 16:26:00,
2013-11-05 11:41:00,78.3,68.0,30.03,ENE,58,10.0,-999.0,71,-99.99,,,0.00,weatherlink.com 1.10,2013-11-05 16:41:00,
2013-11-05 11:56:00,79.3,69.0,30.02,East,79,11.0,-999.0,71,-99.99,,,0.00,weatherlink.com 1.10,2013-11-05 16:56:00,
2013-11-05 12:11:00,79.3,69.0,30.02,ENE,78,3.0,-999.0,71,-99.99,,,0.00,weatherlink.com 1.10,2013-11-05 17:11:00,
2013-11-05 12:26:00,79.1,69.0,30.02,ENE,70,0.0,-999.0,71,-99.99,,,0.00,weatherlink.com 1.10,2013-11-05 17:26:00,
2013-11-05 12:41:00,79.1,69.0,30.01,ENE,76,0.0,-999.0,71,-99.99,,,0.00,weatherlink.com 1.10,2013-11-05 17:41:00,
2013-11-05 12:56:00,79.7,70.0,30.01,ENE,71,0.0,-999.0,71,-99.99,,,0.00,weatherlink.com 1.10,2013-11-05 17:56:00,
2013-11-05 13:11:00,80.1,70.0,30.00,ENE,63,8.0,-999.0,70,-99.99,,,0.00,weatherlink.com 1.10,2013-11-05 18:11:00,
2013-11-05 13:26:00,80.0,69.0,30.00,East,87,5.0,-999.0,70,-99.99,,,0.00,weatherlink.com 1.10,2013-11-05 18:26:00,
2013-11-05 13:41:00,79.5,69.0,30.00,ESE,103,0.0,-999.0,71,-99.99,,,0.00,weatherlink.com 1.10,2013-11-05 18:41:00,
2013-11-05 13:56:00,79.8,70.0,29.99,ENE,64,3.0,-999.0,71,-99.99,,,0.00,weatherlink.com 1.10,2013-11-05 18:56:00,
2013-11-05 14:11:00,80.6,70.0,29.99,ENE,64,11.0,-999.0,70,-99.99,,,0.00,weatherlink.com 1.10,2013-11-05 19:11:00,
2013-11-05 14:26:00,80.8,69.0,29.99,ENE,58,10.0,-999.0,68,-99.99,,,0.00,weatherlink.com 1.10,2013-11-05 19:26:00,
2013-11-05 14:41:00,80.0,69.0,29.99,East,90,2.0,-999.0,69,-99.99,,,0.00,weatherlink.com 1.10,2013-11-05 19:41:00,
2013-11-05 14:56:00,80.1,69.0,29.98,ENE,59,0.0,-999.0,68,-99.99,,,0.00,weatherlink.com 1.10,2013-11-05 19:56:00,
2013-11-05 15:11:00,80.1,69.0,29.98,East,82,1.0,-999.0,69,-99.99,,,0.00,weatherlink.com 1.10,2013-11-05 20:11:00,
2013-11-05 15:26:00,79.3,69.0,29.98,ENE,58,4.0,-999.0,70,-99.99,,,0.00,weatherlink.com 1.10,2013-11-05 20:26:00,
2013-11-05 15:41:00,80.0,69.0,29.98,ENE,69,3.0,-999.0,69,-99.99,,,0.00,weatherlink.com 1.10,2013-11-05 20:41:00,
2013-11-05 15:56:00,79.4,69.0,29.98,NE,51,4.0,-999.0,70,-99.99,,,0.00,weatherlink.com 1.10,2013-11-05 20:56:00,
2013-11-05 16:11:00,79.7,69.0,29.98,ENE,61,5.0,-999.0,70,-99.99,,,0.00,weatherlink.com 1.10,2013-11-05 21:11:00,
2013-11-05 16:26:00,80.3,69.0,29.98,ENE,74,3.0,-999.0,69,-99.99,,,0.00,weatherlink.com 1.10,2013-11-05 21:26:00,
2013-11-05 16:41:00,80.5,69.0,29.98,East,80,1.0,-999.0,67,-99.99,,,0.00,weatherlink.com 1.10,2013-11-05 21:41:00,
2013-11-05 16:56:00,80.2,69.0,29.99,East,88,3.0,-999.0,68,-99.99,,,0.00,weatherlink.com 1.10,2013-11-05 21:56:00,
2013-11-05 17:11:00,79.3,68.0,29.99,ENE,73,15.0,-999.0,69,-99.99,,,0.00,weatherlink.com 1.10,2013-11-05 22:11:00,
2013-11-05 17:26:00,78.5,68.0,30.00,ENE,70,0.0,-999.0,69,-99.99,,,0.00,weatherlink.com 1.10,2013-11-05 22:26:00,
2013-11-05 17:41:00,77.8,67.0,30.00,NE,50,1.0,-999.0,69,-99.99,,,0.00,weatherlink.com 1.10,2013-11-05 22:41:00,
2013-11-05 17:56:00,77.4,67.0,30.00,ENE,70,2.0,-999.0,70,-99.99,,,0.00,weatherlink.com 1.10,2013-11-05 22:56:00,
2013-11-05 18:11:00,77.3,67.0,30.00,ENE,68,4.0,-999.0,70,-99.99,,,0.00,weatherlink.com 1.10,2013-11-05 23:11:00,
2013-11-05 18:26:00,77.2,67.0,30.00,ENE,72,6.0,-999.0,71,-99.99,,,0.00,weatherlink.com 1.10,2013-11-05 23:26:00,
2013-11-05 18:41:00,76.9,67.0,30.00,ENE,68,2.0,-999.0,72,-99.99,,,0.00,weatherlink.com 1.10,2013-11-05 23:41:00,
2013-11-05 18:56:00,76.9,67.0,30.01,ENE,68,6.0,-999.0,72,-99.99,,,0.00,weatherlink.com 1.10,2013-11-05 23:56:00,
2013-11-05 19:11:00,77.1,67.0,30.01,ENE,63,3.0,-999.0,71,-99.99,,,0.00,weatherlink.com 1.10,2013-11-06 00:11:00,
2013-11-05 19:26:00,77.1,67.0,30.01,ENE,69,4.0,-999.0,71,-99.99,,,0.00,weatherlink.com 1.10,2013-11-06 00:26:00,
2013-11-05 19:41:00,76.8,67.0,30.02,NE,55,0.0,-999.0,72,-99.99,,,0.00,weatherlink.com 1.10,2013-11-06 00:41:00,
2013-11-05 19:56:00,76.5,67.0,30.03,East,86,0.0,-999.0,72,-99.99,,,0.00,weatherlink.com 1.10,2013-11-06 00:56:00,
2013-11-05 20:11:00,76.2,67.0,30.03,ENE,60,0.0,-999.0,72,-99.99,,,0.00,weatherlink.com 1.10,2013-11-06 01:11:00,
2013-11-05 20:26:00,75.8,67.0,30.03,ENE,63,1.0,-999.0,73,-99.99,,,0.00,weatherlink.com 1.10,2013-11-06 01:26:00,
2013-11-05 20:41:00,75.5,66.0,30.03,ENE,62,7.0,-999.0,73,-99.99,,,0.00,weatherlink.com 1.10,2013-11-06 01:41:00,
2013-11-05 20:56:00,75.2,66.0,30.04,ENE,62,7.0,-999.0,73,-99.99,,,0.00,weatherlink.com 1.10,2013-11-06 01:56:00,
2013-11-05 21:11:00,74.8,66.0,30.04,ENE,71,7.0,-999.0,73,-99.99,,,0.00,weatherlink.com 1.10,2013-11-06 02:11:00,
2013-11-05 21:26:00,74.5,66.0,30.04,ENE,67,10.0,-999.0,74,-99.99,,,0.00,weatherlink.com 1.10,2013-11-06 02:26:00,
2013-11-05 21:41:00,74.1,65.0,30.05,ENE,69,5.0,-999.0,74,-99.99,,,0.00,weatherlink.com 1.10,2013-11-06 02:41:00,
2013-11-05 21:56:00,73.8,65.0,30.04,ENE,67,10.0,-999.0,74,-99.99,,,0.00,weatherlink.com 1.10,2013-11-06 02:56:00,
2013-11-05 22:11:00,73.2,65.0,30.05,ENE,67,5.0,-999.0,75,-99.99,,,0.00,weatherlink.com 1.10,2013-11-06 03:11:00,
2013-11-05 22:26:00,73.0,65.0,30.05,ENE,73,2.0,-999.0,75,-99.99,,,0.00,weatherlink.com 1.10,2013-11-06 03:26:00,
2013-11-05 22:41:00,72.8,64.0,30.05,ENE,68,1.0,-999.0,75,-99.99,,,0.00,weatherlink.com 1.10,2013-11-06 03:41:00,
2013-11-05 22:56:00,72.7,64.0,30.05,East,101,0.0,-999.0,75,-99.99,,,0.00,weatherlink.com 1.10,2013-11-06 03:56:00,
2013-11-05 23:11:00,72.6,64.0,30.05,East,86,0.0,-999.0,75,-99.99,,,0.00,weatherlink.com 1.10,2013-11-06 04:11:00,
2013-11-05 23:26:00,72.5,65.0,30.04,ENE,65,4.0,-999.0,76,-99.99,,,0.00,weatherlink.com 1.10,2013-11-06 04:26:00,
2013-11-05 23:41:00,72.4,64.0,30.04,NE,51,6.0,-999.0,76,-99.99,,,0.00,weatherlink.com 1.10,2013-11-06 04:41:00,
2013-11-05 23:56:00,72.3,64.0,30.04,ESE,103,0.0,-999.0,76,-99.99,,,0.00,weatherlink.com 1.10,2013-11-06 04:56:00,